GFSCGP_sfc_temp_096.txt.gz
Temp
58 59 55 62 64 62 58 56 57 60 59 57 59 60 64 70 68 66 70 73 74 74 77 74 69 68 66 65 64 65 63 63 61 54 52 51 50 48 48 51 48 48 48 49
56 53 62 60 58 57 56 56 56 58 57 54 58 56 61 65 67 68 71 73 75 76 71 65 66 65 63 63 63 63 63 62 62 61 56 53 50 48 47 46 50 47 47 46
56 58 58 56 52 52 53 53 54 53 54 53 51 55 57 64 64 67 69 70 73 73 68 66 62 63 63 62 61 61 62 61 61 61 57 52 46 45 45 45 44 47 45 47
55 57 52 51 51 54 49 55 54 51 50 49 53 48 60 65 67 65 68 70 70 69 67 66 63 61 61 61 60 60 60 59 59 57 56 53 50 48 50 46 46 45 45 45
54 49 49 49 52 54 53 52 52 50 50 47 52 46 59 59 59 65 71 69 66 64 62 63 60 60 60 59 57 58 59 56 53 52 53 53 51 52 51 50 46 44 44 43
51 52 54 56 51 54 50 50 48 47 48 41 52 50 56 61 62 68 68 63 62 61 59 57 55 56 56 56 55 57 57 56 51 51 51 51 51 49 48 47 43 41 41 42
46 49 50 52 48 50 51 51 42 39 37 40 46 45 56 62 62 64 65 62 63 58 56 54 53 52 53 53 53 55 55 54 54 54 53 51 50 49 48 45 47 44 41 39
46 43 50 53 55 50 47 51 45 33 38 45 40 39 53 62 65 63 62 60 58 58 55 53 52 52 52 51 51 54 54 53 53 52 51 50 48 46 47 49 48 44 45 43
46 46 51 49 53 57 48 43 55 45 31 36 48 55 55 57 59 58 59 57 58 56 52 51 49 50 51 49 51 53 53 53 52 51 49 47 47 46 46 44 43 42 41 36
51 43 46 48 52 52 52 56 42 44 33 33 47 45 49 54 56 58 57 59 55 52 51 50 49 49 50 50 51 53 53 52 52 51 49 47 46 46 45 43 39 37 36 35
52 46 41 45 45 47 45 44 45 48 43 38 38 48 58 59 57 57 58 55 55 53 52 51 50 49 49 51 52 51 51 51 50 49 48 46 45 44 41 40 39 37 35 34
48 40 35 41 46 47 51 50 49 41 36 39 37 45 54 56 59 59 56 54 54 54 53 52 50 48 47 48 50 50 50 49 49 48 47 45 43 41 39 38 37 36 35 34
44 35 32 33 38 43 41 47 50 50 40 36 36 45 47 50 52 52 54 54 51 50 49 48 47 46 47 48 48 48 49 48 48 47 46 44 42 41 39 38 35 35 34 33
45 34 34 35 40 42 36 41 45 46 35 39 40 47 48 49 52 53 52 54 53 50 51 51 49 48 48 47 47 47 47 48 46 45 44 42 42 41 39 37 35 34 33 32
40 32 34 40 43 39 41 41 41 39 43 35 45 46 52 57 55 59 58 54 51 49 50 51 51 50 48 46 46 46 47 46 45 44 43 42 42 40 37 35 34 33 32 32
40 33 34 33 36 36 33 41 43 44 43 43 45 46 59 61 63 61 56 55 52 51 52 51 49 46 45 45 45 45 45 45 44 43 41 41 39 37 34 33 32 31 31 30
34 33 32 32 38 35 31 36 40 44 48 48 41 49 56 55 53 56 57 58 57 56 55 54 52 50 48 46 45 44 45 44 41 41 40 38 37 35 33 32 31 30 29 29
34 32 32 31 32 25 41 44 46 45 48 49 49 51 53 55 57 56 59 58 54 55 55 55 55 54 52 49 46 45 43 41 40 39 37 37 36 34 32 30 29 29 28 28
38 34 31 29 30 36 41 40 41 39 41 49 49 52 55 57 51 53 56 54 57 57 54 52 52 51 52 47 45 42 39 39 38 37 36 36 34 32 31 29 29 29 28 28
34 35 32 31 27 25 38 38 40 43 35 37 44 48 49 50 42 51 48 48 48 47 45 44 46 44 43 43 41 39 37 37 36 37 36 35 33 31 30 30 30 30 31 31
28 29 27 28 28 32 38 39 40 31 34 41 42 40 40 42 48 47 44 45 44 43 43 43 42 41 41 38 38 37 36 35 38 37 34 33 32 31 31 31 31 31 30 30
30 28 29 30 27 25 37 39 35 36 40 41 42 44 41 43 43 44 45 44 44 42 41 40 39 37 36 37 36 36 35 37 37 35 32 31 31 31 31 30 30 30 30 28
27 34 32 32 32 37 39 39 42 39 39 40 41 41 40 40 42 43 43 43 41 39 37 36 37 35 35 35 36 33 35 35 33 31 29 29 30 30 30 30 29 29 29 28
32 33 32 32 38 39 40 42 41 41 41 42 42 41 40 39 39 36 37 37 37 36 35 32 32 32 32 32 31 34 33 33 31 30 29 30 29 29 29 30 29 29 28 29
36 34 33 32 37 39 40 42 42 41 40 38 38 38 39 38 36 35 34 34 35 33 29 29 29 30 32 30 30 31 31 31 30 30 29 29 30 30 29 30 30 30 32 32
37 33 31 30 41 40 41 45 42 39 39 39 37 37 36 36 36 35 33 34 32 32 29 28 26 27 29 28 29 29 30 30 29 27 27 29 30 30 30 30 30 32 33 33

GFSCGP_sfc_temp_102.txt.gz
Temp
59 51 48 54 57 59 57 51 50 54 57 53 52 54 58 63 62 61 61 62 64 66 70 70 69 67 66 66 66 67 65 64 60 56 54 52 51 50 51 52 53 55 56 54
51 47 57 62 58 54 54 50 49 56 57 51 51 51 58 61 61 63 66 63 64 65 67 68 64 63 64 64 64 64 65 64 59 58 56 55 52 50 50 49 50 51 51 51
50 53 61 58 53 51 49 48 47 49 53 52 47 45 50 58 61 65 66 68 67 66 65 63 61 60 60 60 61 62 63 62 60 57 53 49 49 47 46 46 46 47 49 48
53 59 55 52 52 53 45 53 54 51 44 37 47 35 49 57 58 59 61 61 62 64 65 62 61 59 58 58 59 61 61 60 59 59 51 51 50 48 48 46 46 46 47 47
49 50 50 49 51 55 49 52 49 48 43 41 41 37 45 56 54 58 62 63 61 59 62 60 60 59 59 59 57 58 59 58 57 56 54 51 51 54 50 47 45 44 44 44
50 52 51 52 52 54 53 49 48 44 43 33 44 42 43 51 56 59 61 60 58 57 56 55 55 57 55 55 55 55 56 56 54 54 53 50 49 49 44 41 43 42 41 41
47 48 50 51 46 49 49 44 32 30 29 31 47 42 49 55 59 58 58 56 56 56 54 51 50 50 51 51 51 52 53 53 52 51 50 50 50 47 44 42 41 38 37 39
42 39 46 50 49 44 43 45 33 25 27 32 36 34 45 57 58 58 62 58 56 54 54 52 51 50 50 51 50 50 51 51 50 49 48 48 49 46 45 43 42 41 42 41
43 44 52 51 54 53 44 40 50 38 29 28 37 45 54 56 58 58 57 57 54 54 53 52 50 50 49 49 49 49 50 51 50 48 47 46 46 44 43 43 44 43 43 41
47 40 47 47 50 51 48 51 38 37 25 23 35 36 43 50 53 57 55 55 54 54 51 49 48 48 49 49 49 49 50 49 49 49 48 48 46 45 46 45 43 43 40 38
51 45 38 44 42 43 43 40 45 45 39 28 28 36 49 50 51 52 54 55 54 50 49 48 47 48 48 47 47 47 48 48 48 48 47 45 43 43 42 42 41 39 37 36
45 42 36 38 43 46 47 47 48 37 32 35 32 40 50 50 51 51 51 52 51 50 50 48 47 46 46 45 46 46 46 46 47 47 46 44 43 42 39 38 37 36 35 35
42 34 32 33 38 40 39 45 49 49 39 31 30 38 49 51 50 50 48 49 49 48 47 47 46 45 45 45 45 46 46 46 47 47 45 43 41 40 38 36 34 34 34 34
43 33 32 31 33 38 34 39 43 42 35 37 36 42 46 49 50 48 47 49 49 49 49 48 47 46 46 46 46 46 46 47 46 45 43 41 40 39 37 34 32 32 31 31
40 32 33 35 34 33 33 32 34 34 36 33 37 39 45 49 51 52 53 52 52 50 51 51 49 47 46 46 45 46 46 45 45 44 42 40 38 37 34 32 31 31 30 31
40 32 33 31 36 33 32 35 37 38 38 37 38 37 49 52 55 53 55 57 51 52 53 51 50 50 49 48 46 46 45 44 43 42 39 37 36 35 34 33 31 30 29 29
34 33 31 28 33 33 28 34 37 39 43 43 36 43 50 48 51 51 51 52 54 55 55 54 52 50 48 47 47 45 44 43 41 38 37 36 35 34 32 31 30 29 28 28
33 32 30 26 28 19 33 43 44 42 44 45 44 38 40 41 43 49 48 46 49 51 50 49 47 46 46 46 46 45 42 40 37 36 35 35 34 32 30 29 28 26 26 26
37 31 26 22 21 29 34 38 38 38 34 39 38 38 40 42 41 45 46 45 45 46 45 43 43 43 42 42 42 40 38 37 35 34 33 33 32 30 28 26 25 25 25 25
33 32 27 23 19 17 30 34 39 40 28 33 38 39 37 38 30 38 43 43 43 42 42 41 40 40 38 38 37 37 36 35 33 33 33 31 31 29 27 26 25 25 26 28
27 28 27 26 20 26 33 35 37 28 29 36 36 36 33 33 38 42 42 42 41 41 40 39 36 36 36 35 35 34 34 33 34 34 30 29 30 29 28 26 27 28 27 27
27 26 26 27 24 19 35 34 32 34 35 37 37 38 36 38 40 40 40 40 41 39 39 37 34 34 34 34 32 32 32 34 34 29 29 28 28 29 28 27 28 27 26 25
21 29 26 29 28 33 34 33 37 39 36 35 34 38 38 36 37 39 39 39 38 37 35 35 34 33 33 33 30 29 33 32 29 26 23 23 24 27 29 27 26 26 25 25
27 31 25 28 31 33 35 37 39 38 37 37 37 37 37 37 37 36 37 36 35 36 35 32 29 30 30 28 29 29 29 29 29 28 28 28 28 27 28 29 29 28 27 26
29 30 24 25 32 33 34 37 38 37 36 36 36 35 35 34 34 33 33 34 35 34 31 28 28 28 28 27 26 26 27 26 25 26 27 27 28 28 27 28 28 28 29 29
31 29 26 23 33 33 34 37 37 36 35 36 34 34 35 33 33 32 32 32 32 30 26 25 24 23 25 24 24 22 25 26 24 23 25 27 27 26 26 27 26 33 33 34

GFSCGP_sfc_temp_105.txt.gz
Temp
52 45 41 47 49 51 47 45 42 47 54 50 48 48 52 56 55 55 54 55 57 60 64 64 64 64 61 61 62 65 63 61 59 57 56 55 55 53 54 57 59 60 59 57
45 41 50 54 52 51 48 43 43 50 52 49 48 48 51 54 56 58 61 59 58 57 60 64 61 60 60 63 63 62 64 60 59 58 54 55 53 51 51 51 53 54 56 55
42 48 54 52 48 48 45 43 43 46 46 46 44 44 47 52 54 58 61 60 59 59 59 61 59 57 58 58 59 61 62 59 58 56 53 50 50 48 47 48 48 49 51 52
46 53 52 47 47 49 41 48 49 47 42 35 43 34 41 52 55 55 57 56 56 57 59 60 57 54 54 55 56 58 59 58 56 55 54 53 52 49 49 47 47 47 49 49
46 48 47 47 48 51 45 48 48 45 39 36 35 34 39 46 49 54 57 60 55 56 59 57 55 56 54 55 55 56 57 57 56 54 56 55 54 53 50 48 46 46 46 47
47 48 49 50 48 51 50 46 44 41 38 30 38 39 38 45 51 53 55 56 55 51 51 52 52 54 53 51 52 53 55 54 54 53 51 51 51 51 47 46 45 44 43 43
43 45 47 49 45 47 46 41 29 28 26 29 40 36 46 50 54 57 57 54 53 52 51 50 49 49 49 49 50 51 52 51 51 50 48 48 48 46 45 43 44 42 41 40
39 36 44 48 47 43 42 42 31 23 25 29 35 33 44 52 57 60 55 55 52 51 51 50 50 48 49 49 48 49 50 49 49 49 48 47 47 44 43 42 39 40 40 41
38 40 48 48 50 52 41 39 47 35 23 25 33 40 49 53 56 58 54 53 51 49 49 49 48 48 48 47 47 48 48 48 47 47 47 46 45 44 43 41 40 39 38 39
43 37 42 44 49 49 47 49 37 35 24 22 31 33 41 49 52 52 50 50 48 48 47 46 46 46 46 46 46 47 47 48 47 46 46 45 44 43 43 41 40 39 38 37
47 43 36 42 40 41 42 40 42 42 35 27 26 32 45 47 45 45 46 47 47 45 46 45 45 45 45 45 45 46 46 47 46 45 45 44 43 42 41 41 41 40 38 37
42 41 32 36 40 42 44 45 43 33 30 33 31 37 46 47 47 48 47 48 46 46 45 44 44 44 44 44 44 44 45 45 45 45 44 43 41 40 39 38 39 37 37 36
43 34 27 30 35 38 37 41 46 45 37 32 30 35 46 46 47 47 47 46 47 44 43 44 44 43 43 43 43 43 44 44 45 44 43 42 40 39 38 37 35 34 33 32
44 33 33 32 31 37 33 35 37 39 34 34 35 38 45 42 45 48 48 47 45 46 48 46 45 45 44 44 43 43 44 44 45 44 43 42 40 39 37 35 33 32 31 31
40 32 33 35 34 33 33 32 34 33 36 33 39 36 40 44 48 49 50 50 49 49 48 49 49 47 44 44 44 44 44 44 44 43 42 41 38 37 35 32 31 31 30 29
39 31 33 30 34 33 32 34 34 35 35 35 35 35 47 50 49 47 49 50 48 49 49 49 49 47 46 46 45 44 44 43 42 42 41 37 36 34 33 32 31 30 29 28
34 33 31 26 32 32 28 33 36 38 40 40 33 39 44 41 44 42 42 43 43 45 45 46 45 44 44 44 45 44 44 42 40 38 37 35 35 34 33 31 30 28 27 26
33 33 31 26 26 23 32 41 42 39 42 43 41 37 39 41 43 43 41 41 42 43 44 43 43 44 45 43 43 43 41 40 38 36 35 34 33 33 30 29 29 26 25 26
37 32 26 21 15 26 33 36 37 35 36 39 36 39 40 42 40 42 42 41 42 41 42 41 41 41 40 39 38 37 37 37 36 35 34 33 32 29 28 27 26 24 23 23
32 32 26 21 15 13 27 33 37 40 29 34 38 38 38 39 33 38 43 40 41 40 40 40 39 38 36 36 34 35 35 34 34 34 34 31 30 29 27 26 23 21 22 25
27 30 27 20 15 21 32 35 36 27 29 34 37 36 32 32 37 41 41 41 40 40 39 38 34 34 35 34 34 33 33 33 34 34 29 28 28 27 26 24 22 22 21 26
25 24 25 25 22 17 35 34 33 33 34 37 36 37 35 36 37 37 38 38 38 38 37 36 34 34 34 33 32 32 32 34 33 28 26 24 24 27 25 22 24 26 27 25
21 26 23 25 26 31 32 32 36 37 36 34 34 35 35 35 35 36 37 37 37 37 35 35 34 33 33 33 30 28 32 32 27 23 22 21 22 24 25 24 24 25 25 25
25 29 24 26 28 31 34 37 37 37 36 37 36 34 33 34 34 34 34 34 34 34 34 33 28 29 30 28 29 30 29 28 26 24 23 23 24 25 26 28 28 27 25 24
26 30 23 21 29 31 32 37 37 36 35 34 35 34 35 34 32 33 32 33 33 33 29 27 26 27 27 25 25 23 25 23 22 21 21 21 22 23 24 28 28 27 28 28
29 28 26 22 31 32 33 35 35 34 34 35 33 31 33 34 33 32 31 32 31 30 25 24 22 19 21 20 19 19 18 19 19 19 20 20 22 21 23 24 24 32 32 32

GFSCGP_sfc_temp_108.txt.gz
Temp
49 45 41 46 48 48 46 43 41 45 52 48 46 47 51 53 52 53 52 53 53 56 64 60 60 62 58 57 60 65 66 63 62 62 62 62 62 59 61 64 62 61 60 58
44 39 48 50 48 48 44 41 40 47 48 47 45 46 49 51 53 56 60 57 56 55 54 60 60 57 57 61 62 63 65 61 62 62 62 59 55 53 53 54 59 61 58 57
41 47 52 50 46 46 42 41 42 45 44 43 41 42 45 50 49 53 55 59 59 56 54 57 59 56 54 56 59 61 63 61 61 57 53 50 51 50 50 50 50 52 58 56
44 50 48 45 45 47 39 47 47 44 40 35 40 34 39 48 53 52 55 56 55 54 54 55 57 55 52 57 56 59 59 60 57 55 56 53 53 53 51 50 49 49 51 53
44 45 46 44 46 48 44 47 45 42 37 33 32 33 37 41 45 51 55 55 55 53 54 56 55 55 51 52 54 56 56 56 54 54 56 55 53 54 51 49 49 48 47 48
45 47 48 49 46 49 48 44 41 37 35 30 35 37 33 42 48 49 53 55 54 48 47 48 49 51 50 50 51 53 55 54 53 53 52 55 55 52 48 47 48 47 46 45
42 44 46 48 43 44 44 40 29 28 26 29 35 33 40 47 53 53 55 55 48 46 47 48 49 49 48 49 49 51 52 50 51 50 50 50 52 51 51 49 48 45 43 41
36 33 43 48 47 43 42 42 31 22 23 28 33 31 41 49 53 53 55 54 49 48 48 47 47 48 49 48 47 48 49 48 49 48 47 47 48 47 46 45 43 46 46 45
38 38 44 45 47 51 42 38 44 34 20 24 32 37 47 50 52 50 49 52 48 45 47 47 45 48 47 47 47 48 48 47 47 47 46 46 46 44 44 42 41 41 39 39
42 35 39 43 46 45 44 48 36 33 23 21 30 32 38 46 46 46 46 45 46 45 45 46 46 46 45 45 46 46 47 47 46 46 46 45 44 44 43 41 40 39 38 37
43 40 35 41 39 39 40 39 40 41 34 27 24 32 43 44 46 45 45 46 45 44 45 45 45 44 44 44 44 44 45 45 45 45 45 44 43 42 41 40 39 38 36 35
42 40 29 35 39 40 41 42 43 34 29 31 30 37 45 43 44 45 44 46 44 44 44 43 43 43 42 43 43 43 43 44 44 44 44 43 42 41 39 38 38 37 36 34
43 34 26 29 34 36 37 40 43 42 35 30 27 33 43 42 43 43 45 44 45 41 41 43 42 42 43 42 42 43 43 43 43 43 43 42 41 39 38 38 36 35 35 35
46 35 33 32 32 36 33 36 39 42 31 33 35 36 40 39 41 44 46 44 45 46 46 44 44 44 43 43 43 43 43 43 44 43 43 42 40 39 39 37 35 34 33 33
41 33 35 35 35 35 34 33 34 34 38 33 36 34 38 41 43 45 44 45 47 48 48 48 47 47 44 43 43 43 42 43 43 42 42 41 40 38 37 35 33 32 31 31
39 32 33 32 34 34 30 35 36 36 36 35 35 33 42 46 45 41 44 46 43 43 43 44 44 43 43 43 43 43 43 42 41 41 40 39 37 36 35 34 32 31 30 28
34 33 31 27 32 31 28 33 35 36 36 40 33 42 45 42 43 41 41 42 42 42 43 43 43 44 43 42 42 42 42 41 39 38 38 37 36 35 34 32 30 29 27 25
33 33 31 27 30 22 32 37 41 39 40 41 36 37 41 42 41 41 41 41 40 41 41 41 41 41 41 40 40 39 37 38 37 37 36 36 35 33 32 29 29 26 24 25
38 32 28 25 16 26 31 35 34 34 35 42 37 37 39 41 39 37 40 41 41 39 41 40 39 38 38 37 36 34 35 34 34 35 35 34 30 29 28 29 27 25 24 22
34 31 26 20 17 14 27 32 36 39 30 33 38 37 37 38 33 37 39 39 40 39 39 38 37 37 35 36 33 33 34 33 34 34 34 30 29 29 28 27 24 21 21 24
28 29 26 20 13 19 32 34 36 28 29 33 37 36 33 32 36 40 39 39 38 38 38 37 35 36 36 34 33 33 33 33 34 33 28 26 25 25 25 22 20 19 20 24
27 27 26 23 20 18 33 34 32 33 33 35 35 36 36 35 35 36 36 37 37 37 36 36 35 35 34 33 32 32 32 34 32 28 26 23 20 23 22 19 17 19 19 23
21 26 22 27 27 31 30 30 34 36 34 34 35 36 36 33 33 33 35 35 34 34 35 35 34 33 33 32 28 28 32 30 27 22 20 18 18 21 20 18 18 19 20 20
24 28 24 26 28 30 32 35 36 35 35 36 36 36 35 32 34 34 34 34 33 34 34 31 28 28 29 27 28 29 29 28 24 24 22 21 22 22 21 23 23 27 25 21
26 29 23 21 28 31 33 35 36 35 36 36 34 33 32 31 30 31 31 32 32 32 28 26 26 27 27 24 24 23 24 20 21 19 20 19 20 19 19 23 27 27 28 28
28 27 26 23 32 31 32 34 36 35 33 32 31 30 31 31 30 28 28 29 28 27 24 24 22 20 22 20 20 16 15 16 16 19 19 19 19 17 19 25 22 32 32 32